| time (UTC) | temp F | wind direction | speed knots | gust knots | rain 1hr in | rain 24hr in | rain mn in | humidity % | barometer mb |
| 20260504231529 | 82 | 113 | 6.1 | 10.4 | 0.00 | 0.00 | 0.00 | 58 | 1011.0 |
| 20260504231026 | 82 | 118 | 7.8 | 12.2 | 0.00 | 0.00 | 0.00 | 57 | 1010.9 |
| 20260504230543 | 83 | 123 | 7.0 | 8.7 | 0.00 | 0.00 | 0.00 | 56 | 1011.0 |
| 20260504230041 | 83 | 80 | 4.3 | 6.1 | 0.00 | 0.00 | 0.00 | 55 | 1011.0 |
| 20260504225539 | 82 | 101 | 1.7 | 5.2 | 0.00 | 0.00 | 0.00 | 56 | 1011.0 |
| 20260504225036 | 82 | 101 | 2.6 | 5.2 | 0.00 | 0.00 | 0.00 | 56 | 1011.0 |
| 20260504224537 | 82 | 101 | 2.6 | 7.8 | 0.00 | 0.00 | 0.00 | 57 | 1011.0 |
| 20260504224035 | 82 | 107 | 3.5 | 7.8 | 0.00 | 0.00 | 0.00 | 56 | 1011.0 |
| 20260504223528 | 82 | 109 | 4.3 | 6.1 | 0.00 | 0.00 | 0.00 | 53 | 1010.9 |
| 20260504223028 | 82 | 84 | 2.6 | 5.2 | 0.00 | 0.00 | 0.00 | 53 | 1010.9 |
| 20260504222526 | 82 | 90 | 2.6 | 4.3 | 0.00 | 0.00 | 0.00 | 53 | 1011.0 |
| 20260504222024 | 83 | 105 | 2.6 | 7.8 | 0.00 | 0.00 | 0.00 | 53 | 1011.0 |
| 20260504221551 | 83 | 117 | 6.1 | 7.8 | 0.00 | 0.00 | 0.00 | 51 | 1011.2 |
| 20260504221028 | 83 | 129 | 4.3 | 7.8 | 0.00 | 0.00 | 0.00 | 51 | 1011.2 |
| 20260504220525 | 83 | 101 | 6.1 | 8.7 | 0.00 | 0.00 | 0.00 | 50 | 1011.2 |
| 20260504220027 | 83 | 144 | 6.1 | 8.7 | 0.00 | 0.00 | 0.00 | 54 | 1011.1 |
| 20260504215526 | 83 | 77 | 4.3 | 8.7 | 0.00 | 0.00 | 0.00 | 50 | 1011.2 |
| 20260504215025 | 83 | 101 | 2.6 | 7.8 | 0.00 | 0.00 | 0.00 | 52 | 1011.1 |
| 20260504214525 | 83 | 107 | 2.6 | 6.1 | 0.00 | 0.00 | 0.00 | 51 | 1011.1 |
| 20260504214042 | 83 | 9 | 1.7 | 7.8 | 0.00 | 0.00 | 0.00 | 51 | 1011.1 |
| 20260504213542 | 83 | 344 | 2.6 | 10.4 | 0.00 | 0.00 | 0.00 | 50 | 1011.1 |
| 20260504213041 | 83 | 59 | 5.2 | 10.4 | 0.00 | 0.00 | 0.00 | 49 | 1011.1 |
| 20260504212558 | 83 | 119 | 4.3 | 8.7 | 0.00 | 0.00 | 0.00 | 52 | 1011.1 |
| 20260504212100 | 83 | 94 | 5.2 | 7.8 | 0.00 | 0.00 | 0.00 | 51 | 1011.1 |
| 20260504211539 | 83 | 76 | 4.3 | 10.4 | 0.00 | 0.00 | 0.00 | 51 | 1011.3 |
| 20260504211035 | 83 | 115 | 6.1 | 10.4 | 0.00 | 0.00 | 0.00 | 51 | 1011.3 |
| 20260504210559 | 82 | 94 | 6.1 | 9.6 | 0.00 | 0.00 | 0.00 | 50 | 1011.3 |
| 20260504210035 | 82 | 55 | 5.2 | 10.4 | 0.00 | 0.00 | 0.00 | 51 | 1011.4 |
| 20260504205553 | 83 | 65 | 5.2 | 9.6 | 0.00 | 0.00 | 0.00 | 52 | 1011.4 |
| 20260504205030 | 82 | 99 | 5.2 | 9.6 | 0.00 | 0.00 | 0.00 | 50 | 1011.4 |
| 20260504204551 | 82 | 64 | 4.3 | 9.6 | 0.00 | 0.00 | 0.00 | 50 | 1011.4 |
| 20260504204028 | 82 | 101 | 7.0 | 9.6 | 0.00 | 0.00 | 0.00 | 50 | 1011.5 |
| 20260504203527 | 82 | 66 | 4.3 | 9.6 | 0.00 | 0.00 | 0.00 | 52 | 1011.3 |
| 20260504203026 | 82 | 106 | 6.1 | 9.6 | 0.00 | 0.00 | 0.00 | 51 | 1011.5 |
| 20260504202524 | 82 | 98 | 5.2 | 9.6 | 0.00 | 0.00 | 0.00 | 52 | 1011.6 |
| 20260504202043 | 82 | 111 | 3.5 | 10.4 | 0.00 | 0.00 | 0.00 | 49 | 1011.5 |
| 20260504201543 | 82 | 82 | 2.6 | 13.0 | 0.00 | 0.00 | 0.00 | 51 | 1011.5 |
| 20260504201041 | 82 | 107 | 7.0 | 13.0 | 0.00 | 0.00 | 0.00 | 51 | 1011.7 |
| 20260504200600 | 82 | 98 | 3.5 | 7.8 | 0.00 | 0.00 | 0.00 | 51 | 1011.7 |
| 20260504200037 | 82 | 86 | 3.5 | 9.6 | 0.00 | 0.00 | 0.00 | 51 | 1011.8 |
| 20260504195533 | 82 | 80 | 4.3 | 8.7 | 0.00 | 0.00 | 0.00 | 49 | 1011.8 |
| 20260504195027 | 82 | 49 | 3.5 | 8.7 | 0.00 | 0.00 | 0.00 | 53 | 1011.8 |
| 20260504194526 | 82 | 77 | 5.2 | 8.7 | 0.00 | 0.00 | 0.00 | 51 | 1012.0 |
| 20260504194023 | 82 | 126 | 5.2 | 8.7 | 0.00 | 0.00 | 0.00 | 51 | 1012.1 |
| 20260504193541 | 82 | 159 | 2.6 | 7.8 | 0.00 | 0.00 | 0.00 | 52 | 1012.1 |
| 20260504193039 | 81 | 102 | 5.2 | 7.8 | 0.00 | 0.00 | 0.00 | 51 | 1012.3 |
| 20260504192535 | 81 | 114 | 5.2 | 7.8 | 0.00 | 0.00 | 0.00 | 53 | 1012.3 |
| 20260504192055 | 81 | 126 | 4.3 | 10.4 | 0.00 | 0.00 | 0.00 | 55 | 1012.4 |
| 20260504191556 | 81 | 69 | 2.6 | 8.7 | 0.00 | 0.00 | 0.00 | 54 | 1012.3 |
| 20260504191033 | 81 | 98 | 4.3 | 10.4 | 0.00 | 0.00 | 0.00 | 52 | 1012.4 |
| 20260504190553 | 81 | 88 | 6.1 | 10.4 | 0.00 | 0.00 | 0.00 | 53 | 1012.5 |
| 20260504190052 | 81 | 144 | 3.5 | 10.4 | 0.00 | 0.00 | 0.00 | 52 | 1012.5 |
| 20260504185548 | 81 | 113 | 4.3 | 11.3 | 0.00 | 0.00 | 0.00 | 54 | 1012.6 |
| 20260504185025 | 81 | 119 | 5.2 | 11.3 | 0.00 | 0.00 | 0.00 | 54 | 1012.7 |
| 20260504184525 | 81 | 103 | 7.0 | 9.6 | 0.00 | 0.00 | 0.00 | 56 | 1012.8 |
| 20260504184042 | 80 | 126 | 3.5 | 9.6 | 0.00 | 0.00 | 0.00 | 58 | 1012.9 |
| 20260504183543 | 80 | 98 | 5.2 | 11.3 | 0.00 | 0.00 | 0.00 | 54 | 1013.0 |
| 20260504183042 | 80 | 81 | 7.0 | 11.3 | 0.00 | 0.00 | 0.00 | 55 | 1013.1 |
| 20260504182543 | 80 | 112 | 7.8 | 10.4 | 0.00 | 0.00 | 0.00 | 55 | 1013.2 |
| 20260504182041 | 80 | 123 | 4.3 | 10.4 | 0.00 | 0.00 | 0.00 | 56 | 1013.2 |
| 20260504181541 | 80 | 104 | 7.8 | 10.4 | 0.00 | 0.00 | 0.00 | 56 | 1013.4 |
| 20260504181055 | 80 | 94 | 1.7 | 7.8 | 0.00 | 0.00 | 0.00 | 57 | 1013.4 |
| 20260504180553 | 80 | 102 | 4.3 | 8.7 | 0.00 | 0.00 | 0.00 | 58 | 1013.6 |
| 20260504180031 | 80 | 73 | 5.2 | 8.7 | 0.00 | 0.00 | 0.00 | 57 | 1013.7 |
| 20260504175529 | 80 | 40 | 6.1 | 8.7 | 0.00 | 0.00 | 0.00 | 57 | 1013.8 |
| 20260504175027 | 80 | 194 | 3.5 | 12.2 | 0.00 | 0.00 | 0.00 | 55 | 1013.7 |
| 20260504174527 | 79 | 184 | 3.5 | 12.2 | 0.00 | 0.00 | 0.00 | 56 | 1013.6 |
| 20260504174043 | 79 | 142 | 4.3 | 11.3 | 0.00 | 0.00 | 0.00 | 58 | 1013.7 |
| 20260504173541 | 79 | 103 | 7.0 | 11.3 | 0.00 | 0.00 | 0.00 | 57 | 1013.8 |
| 20260504173041 | 79 | 61 | 4.3 | 8.7 | 0.00 | 0.00 | 0.00 | 58 | 1013.7 |
| 20260504172540 | 79 | 121 | 4.3 | 9.6 | 0.00 | 0.00 | 0.00 | 58 | 1013.8 |
| 20260504172039 | 79 | 76 | 3.5 | 13.0 | 0.00 | 0.00 | 0.00 | 57 | 1013.9 |
| 20260504171540 | 79 | 134 | 3.5 | 8.7 | 0.00 | 0.00 | 0.00 | 58 | 1013.9 |
| 20260504171038 | 79 | 360 | 5.2 | 12.2 | 0.00 | 0.00 | 0.00 | 59 | 1014.0 |
| 20260504170537 | 78 | 105 | 7.0 | 12.2 | 0.00 | 0.00 | 0.00 | 58 | 1014.0 |
| 20260504151029 | 76 | 55 | 7.0 | 11.3 | 0.00 | 0.00 | 0.00 | 63 | 1015.2 |
| 20260504150528 | 76 | 18 | 7.8 | 15.6 | 0.00 | 0.00 | 0.00 | 64 | 1015.1 |
| 20260504141038 | 74 | 101 | 7.0 | 13.0 | 0.00 | 0.00 | 0.00 | 68 | 1014.9 |
| 20260504140536 | 74 | 82 | 7.0 | 12.2 | 0.00 | 0.00 | 0.00 | 68 | 1014.8 |
| 20260504130540 | 71 | 85 | 8.7 | 13.0 | 0.00 | 0.00 | 0.00 | 72 | 1014.6 |
| 20260504110530 | 64 | 45 | 1.7 | 3.5 | 0.00 | 0.00 | 0.00 | 82 | 1013.9 |
| 20260504100532 | 65 | 23 | 1.7 | 4.3 | 0.00 | 0.00 | 0.00 | 81 | 1013.7 |
| 20260504081534 | 67 | 50 | 3.5 | 5.2 | 0.00 | 0.00 | 0.00 | 79 | 1013.5 |
| 20260504081049 | 67 | 34 | 2.6 | 5.2 | 0.00 | 0.00 | 0.00 | 79 | 1013.5 |
| 20260504080528 | 67 | 68 | 2.6 | 5.2 | 0.00 | 0.00 | 0.00 | 78 | 1013.7 |
| 20260504050532 | 71 | 72 | 1.7 | 5.2 | 0.00 | 0.00 | 0.00 | 75 | 1014.5 |
| 20260504045527 | 71 | 98 | 4.3 | 7.0 | 0.00 | 0.00 | 0.00 | 75 | 1014.5 |
| 20260504045025 | 71 | 86 | 2.6 | 6.1 | 0.00 | 0.00 | 0.00 | 75 | 1014.4 |
| 20260504044525 | 71 | 63 | 3.5 | 6.1 | 0.00 | 0.00 | 0.00 | 75 | 1014.3 |
| 20260504044043 | 71 | 88 | 2.6 | 7.8 | 0.00 | 0.00 | 0.00 | 75 | 1014.5 |
| 20260504043557 | 71 | 88 | 2.6 | 7.0 | 0.00 | 0.00 | 0.00 | 75 | 1014.7 |
| 20260504043052 | 71 | 90 | 3.5 | 7.0 | 0.00 | 0.00 | 0.00 | 74 | 1014.9 |
| 20260504042528 | 72 | 78 | 1.7 | 3.5 | 0.00 | 0.00 | 0.00 | 74 | 1015.0 |
| 20260504042027 | 72 | 87 | 1.7 | 5.2 | 0.00 | 0.00 | 0.00 | 74 | 1015.1 |
| 20260504041528 | 72 | 89 | 2.6 | 5.2 | 0.00 | 0.00 | 0.00 | 74 | 1015.1 |
| 20260504041025 | 72 | 77 | 2.6 | 3.5 | 0.00 | 0.00 | 0.00 | 74 | 1015.2 |
| 20260504040543 | 72 | 97 | 1.7 | 5.2 | 0.00 | 0.00 | 0.00 | 74 | 1015.3 |
| 20260504040039 | 72 | 96 | 3.5 | 5.2 | 0.00 | 0.00 | 0.00 | 73 | 1015.3 |
| 20260504035539 | 72 | 58 | 2.6 | 5.2 | 0.00 | 0.00 | 0.00 | 74 | 1015.3 |
| 20260504035037 | 72 | 102 | 2.6 | 7.0 | 0.00 | 0.00 | 0.00 | 73 | 1015.3 |
| 20260504034537 | 72 | 112 | 4.3 | 7.8 | 0.00 | 0.00 | 0.00 | 73 | 1015.2 |
| 20260504034100 | 72 | 105 | 4.3 | 7.8 | 0.00 | 0.00 | 0.00 | 73 | 1015.2 |
| 20260504033540 | 72 | 71 | 4.3 | 7.8 | 0.00 | 0.00 | 0.00 | 73 | 1015.2 |
| 20260504033040 | 72 | 97 | 3.5 | 7.0 | 0.00 | 0.00 | 0.00 | 73 | 1015.2 |
| 20260504032536 | 73 | 101 | 4.3 | 7.0 | 0.00 | 0.00 | 0.00 | 73 | 1015.3 |
| 20260504032059 | 73 | 93 | 2.6 | 5.2 | 0.00 | 0.00 | 0.00 | 73 | 1015.1 |
| 20260504031534 | 73 | 103 | 2.6 | 4.3 | 0.00 | 0.00 | 0.00 | 73 | 1015.1 |
| 20260504031046 | 73 | 71 | 1.7 | 3.5 | 0.00 | 0.00 | 0.00 | 72 | 1015.1 |
| 20260504030526 | 73 | 61 | 1.7 | 3.5 | 0.00 | 0.00 | 0.00 | 72 | 1015.0 |
| 20260504030045 | 73 | 60 | 0.9 | 2.6 | 0.00 | 0.00 | 0.00 | 72 | 1014.9 |
| 20260504025541 | 73 | 60 | 1.7 | 2.6 | 0.00 | 0.00 | 0.00 | 71 | 1015.0 |
| 20260504025039 | 73 | 59 | 1.7 | 2.6 | 0.00 | 0.00 | 0.00 | 71 | 1014.9 |
| 20260504024539 | 73 | 59 | 1.7 | 4.3 | 0.00 | 0.00 | 0.00 | 71 | 1014.8 |
| 20260504024035 | 73 | 81 | 1.7 | 4.3 | 0.00 | 0.00 | 0.00 | 71 | 1014.8 |
| 20260504023536 | 73 | 76 | 1.7 | 3.5 | 0.00 | 0.00 | 0.00 | 71 | 1014.7 |
| 20260504023100 | 73 | 65 | 2.6 | 4.3 | 0.00 | 0.00 | 0.00 | 71 | 1014.8 |
| 20260504022537 | 73 | 63 | 1.7 | 4.3 | 0.00 | 0.00 | 0.00 | 70 | 1014.9 |
| 20260504022036 | 73 | 46 | 1.7 | 2.6 | 0.00 | 0.00 | 0.00 | 70 | 1014.8 |
| 20260504021555 | 73 | 32 | 0.9 | 4.3 | 0.00 | 0.00 | 0.00 | 70 | 1014.7 |
| 20260504021027 | 73 | 34 | 2.6 | 4.3 | 0.00 | 0.00 | 0.00 | 69 | 1014.5 |
| 20260504020525 | 73 | 41 | 2.6 | 4.3 | 0.00 | 0.00 | 0.00 | 69 | 1014.5 |
| 20260504020024 | 73 | 32 | 2.6 | 5.2 | 0.00 | 0.00 | 0.00 | 69 | 1014.6 |
| 20260504015543 | 73 | 75 | 2.6 | 7.0 | 0.00 | 0.00 | 0.00 | 69 | 1014.6 |
| 20260504015041 | 73 | 85 | 4.3 | 7.0 | 0.00 | 0.00 | 0.00 | 70 | 1014.4 |
| 20260504014539 | 73 | 13 | 2.6 | 5.2 | 0.00 | 0.00 | 0.00 | 70 | 1014.4 |
| 20260504014035 | 73 | 47 | 1.7 | 3.5 | 0.00 | 0.00 | 0.00 | 70 | 1014.2 |
| 20260504013534 | 73 | 59 | 1.7 | 3.5 | 0.00 | 0.00 | 0.00 | 70 | 1014.3 |
| 20260504013100 | 73 | 5 | 0.0 | 2.6 | 0.00 | 0.00 | 0.00 | 70 | 1014.1 |
| 20260504012602 | 73 | 5 | 0.9 | 2.6 | 0.00 | 0.00 | 0.00 | 70 | 1014.0 |
| 20260504012102 | 73 | 5 | 0.9 | 2.6 | 0.00 | 0.00 | 0.00 | 69 | 1013.9 |
| 20260504011540 | 73 | 10 | 1.7 | 2.6 | 0.00 | 0.00 | 0.00 | 69 | 1013.7 |
| 20260504011058 | 73 | 10 | 1.7 | 5.2 | 0.00 | 0.00 | 0.00 | 69 | 1013.6 |
| 20260504010536 | 73 | 332 | 2.6 | 5.2 | 0.00 | 0.00 | 0.00 | 69 | 1013.7 |
| 20260504005558 | 73 | 19 | 1.7 | 4.3 | 0.00 | 0.00 | 0.00 | 69 | 1013.5 |
| 20260504005029 | 74 | 345 | 1.7 | 4.3 | 0.00 | 0.00 | 0.00 | 69 | 1013.4 |
| 20260504004530 | 74 | 330 | 2.6 | 4.3 | 0.00 | 0.00 | 0.00 | 69 | 1013.4 |
| 20260504004028 | 74 | 346 | 1.7 | 3.5 | 0.00 | 0.00 | 0.00 | 69 | 1013.4 |
| 20260504003528 | 74 | 30 | 0.9 | 4.3 | 0.00 | 0.00 | 0.00 | 69 | 1013.3 |
| 20260504003028 | 74 | 355 | 2.6 | 4.3 | 0.00 | 0.00 | 0.00 | 68 | 1013.3 |
| 20260504002526 | 74 | 5 | 1.7 | 4.3 | 0.00 | 0.00 | 0.00 | 68 | 1013.1 |
| 20260504002044 | 74 | 26 | 1.7 | 6.1 | 0.00 | 0.00 | 0.00 | 68 | 1013.0 |
| 20260504001541 | 75 | 331 | 2.6 | 6.1 | 0.00 | 0.00 | 0.00 | 68 | 1013.1 |
| 20260504001039 | 75 | 336 | 2.6 | 4.3 | 0.00 | 0.00 | 0.00 | 67 | 1013.0 |
| 20260504000540 | 75 | 5 | 2.6 | 7.0 | 0.00 | 0.00 | 0.00 | 68 | 1012.9 |
| 20260504000035 | 75 | 336 | 1.7 | 7.0 | 0.00 | 0.00 | 0.00 | 68 | 1012.8 |
| 20260503235532 | 75 | 334 | 2.6 | 5.2 | 0.00 | 0.00 | 0.00 | 67 | 1012.9 |
| 20260503235028 | 76 | 339 | 3.5 | 5.2 | 0.00 | 0.00 | 0.00 | 67 | 1012.8 |
| 20260503234527 | 76 | 355 | 0.9 | 5.2 | 0.00 | 0.00 | 0.00 | 67 | 1012.9 |
| 20260503234024 | 76 | 319 | 2.6 | 5.2 | 0.00 | 0.00 | 0.00 | 67 | 1012.8 |
| 20260503233542 | 77 | 330 | 3.5 | 8.7 | 0.00 | 0.00 | 0.00 | 66 | 1012.8 |
| 20260503233041 | 77 | 319 | 5.2 | 8.7 | 0.00 | 0.00 | 0.00 | 65 | 1012.8 |
| 20260503232541 | 78 | 332 | 4.3 | 8.7 | 0.00 | 0.00 | 0.00 | 65 | 1012.8 |
| 20260503232038 | 78 | 22 | 4.3 | 8.7 | 0.00 | 0.00 | 0.00 | 64 | 1012.8 |